Time,TemperatureF,DewpointF,PressureIn,WindDirection,WindDirectionDegrees,WindSpeedMPH,WindSpeedGustMPH,Humidity,HourlyPrecipIn,Conditions,Clouds,dailyrainin,SolarRadiationWatts/m^2,SoftwareType,DateUTC
2013-05-26 00:03:00,51.0,44.0,-100.00,North,350,2.0,2.0,78,0.00,,,0.00,0.000000,,2013-05-26 04:03:00,
2013-05-26 00:33:00,50.0,45.0,-100.00,NNW,330,0.0,2.0,82,0.00,,,0.00,0.000000,,2013-05-26 04:33:00,
2013-05-26 00:43:00,50.0,45.0,-100.00,NNW,330,0.0,2.0,82,0.00,,,0.00,0.000000,,2013-05-26 04:43:00,
2013-05-26 00:52:00,50.0,45.0,-100.00,NNW,330,0.0,2.0,82,0.00,,,0.00,0.000000,,2013-05-26 04:52:00,
2013-05-26 01:02:00,50.0,45.0,-100.00,NNW,330,0.0,2.0,82,0.00,,,0.00,0.000000,,2013-05-26 05:02:00,
2013-05-26 01:32:00,49.0,43.0,-100.00,NNW,346,2.0,2.0,80,0.00,,,0.00,0.000000,,2013-05-26 05:32:00,
2013-05-26 01:42:00,49.0,43.0,-100.00,NNW,346,2.0,2.0,80,0.00,,,0.00,0.000000,,2013-05-26 05:42:00,
2013-05-26 01:52:00,49.0,43.0,-100.00,NNW,346,2.0,2.0,80,0.00,,,0.00,0.000000,,2013-05-26 05:52:00,
2013-05-26 02:01:00,49.0,43.0,-100.00,NNW,346,2.0,2.0,80,0.00,,,0.00,0.000000,,2013-05-26 06:01:00,
2013-05-26 02:32:00,49.0,43.0,-100.00,NNW,345,1.0,2.0,81,0.00,,,0.00,0.000000,,2013-05-26 06:32:00,
2013-05-26 02:42:00,49.0,43.0,-100.00,NNW,345,1.0,2.0,81,0.00,,,0.00,0.000000,,2013-05-26 06:42:00,
2013-05-26 02:52:00,49.0,43.0,-100.00,NNW,345,1.0,2.0,81,0.00,,,0.00,0.000000,,2013-05-26 06:52:00,
2013-05-26 03:02:00,49.0,43.0,-100.00,NNW,345,1.0,2.0,81,0.00,,,0.00,0.000000,,2013-05-26 07:02:00,
2013-05-26 03:32:00,50.0,43.0,-100.00,NW,325,0.0,2.0,77,0.00,,,0.00,0.000000,,2013-05-26 07:32:00,
2013-05-26 03:42:00,50.0,43.0,-100.00,NW,325,0.0,2.0,77,0.00,,,0.00,0.000000,,2013-05-26 07:42:00,
2013-05-26 03:52:00,50.0,43.0,-100.00,NW,325,0.0,2.0,77,0.00,,,0.00,0.000000,,2013-05-26 07:52:00,
2013-05-26 04:01:00,50.0,43.0,-100.00,NW,325,0.0,2.0,77,0.00,,,0.00,0.000000,,2013-05-26 08:01:00,
2013-05-26 04:32:00,48.0,42.0,-100.00,NNW,341,0.0,2.0,81,0.00,,,0.00,0.000000,,2013-05-26 08:32:00,
2013-05-26 04:42:00,48.0,42.0,-100.00,NNW,341,0.0,2.0,81,0.00,,,0.00,0.000000,,2013-05-26 08:42:00,
2013-05-26 04:53:00,48.0,42.0,-100.00,NNW,341,0.0,2.0,81,0.00,,,0.00,0.000000,,2013-05-26 08:53:00,
2013-05-26 05:01:00,48.0,42.0,-100.00,NNW,341,0.0,2.0,81,0.00,,,0.00,0.000000,,2013-05-26 09:01:00,
2013-05-26 05:34:00,50.0,42.0,-100.00,NNW,336,1.0,5.0,75,0.00,,,0.00,0.000000,,2013-05-26 09:34:00,
2013-05-26 05:43:00,50.0,42.0,-100.00,NNW,336,1.0,5.0,75,0.00,,,0.00,0.000000,,2013-05-26 09:43:00,
2013-05-26 05:53:00,50.0,42.0,-100.00,NNW,336,1.0,5.0,75,0.00,,,0.00,0.000000,,2013-05-26 09:53:00,
2013-05-26 06:03:00,50.0,42.0,-100.00,NNW,336,1.0,5.0,75,0.00,,,0.00,0.000000,,2013-05-26 10:03:00,
2013-05-26 06:33:00,49.0,45.0,-100.00,NNW,344,0.0,3.0,85,0.00,,,0.00,0.000000,,2013-05-26 10:33:00,
2013-05-26 06:42:00,49.0,45.0,-100.00,NNW,344,0.0,3.0,85,0.00,,,0.00,0.000000,,2013-05-26 10:42:00,
2013-05-26 06:52:00,49.0,45.0,-100.00,NNW,344,0.0,3.0,85,0.00,,,0.00,0.000000,,2013-05-26 10:52:00,
2013-05-26 07:03:00,49.0,45.0,-100.00,NNW,344,0.0,3.0,85,0.00,,,0.00,0.000000,,2013-05-26 11:03:00,
2013-05-26 07:32:00,50.0,45.0,-100.00,WSW,237,0.0,2.0,84,0.00,,,0.00,7.000000,,2013-05-26 11:32:00,
2013-05-26 07:42:00,50.0,45.0,-100.00,WSW,237,0.0,2.0,84,0.00,,,0.00,7.000000,,2013-05-26 11:42:00,
2013-05-26 07:52:00,50.0,45.0,-100.00,WSW,237,0.0,2.0,84,0.00,,,0.00,7.000000,,2013-05-26 11:52:00,
2013-05-26 08:02:00,50.0,45.0,-100.00,WSW,237,0.0,2.0,84,0.00,,,0.00,7.000000,,2013-05-26 12:02:00,
2013-05-26 08:32:00,54.0,47.0,-100.00,SSE,168,3.0,6.0,77,0.00,,,0.00,58.000000,,2013-05-26 12:32:00,
2013-05-26 08:42:00,54.0,47.0,-100.00,SSE,168,3.0,6.0,77,0.00,,,0.00,58.000000,,2013-05-26 12:42:00,
2013-05-26 08:52:00,54.0,47.0,-100.00,SSE,168,3.0,6.0,77,0.00,,,0.00,58.000000,,2013-05-26 12:52:00,
2013-05-26 09:02:00,54.0,47.0,-100.00,SSE,168,3.0,6.0,77,0.00,,,0.00,58.000000,,2013-05-26 13:02:00,
2013-05-26 09:32:00,65.0,45.0,-100.00,SSE,165,1.0,4.0,48,0.00,,,0.00,332.000000,,2013-05-26 13:32:00,
2013-05-26 09:42:00,65.0,45.0,-100.00,SSE,165,1.0,4.0,48,0.00,,,0.00,332.000000,,2013-05-26 13:42:00,
2013-05-26 09:52:00,65.0,45.0,-100.00,SSE,165,1.0,4.0,48,0.00,,,0.00,332.000000,,2013-05-26 13:52:00,
2013-05-26 10:02:00,65.0,45.0,-100.00,SSE,165,1.0,4.0,48,0.00,,,0.00,332.000000,,2013-05-26 14:02:00,
2013-05-26 10:32:00,67.0,46.0,-100.00,ENE,70,2.0,4.0,46,0.00,,,0.00,428.000000,,2013-05-26 14:32:00,
2013-05-26 10:42:00,67.0,46.0,-100.00,ENE,70,2.0,4.0,46,0.00,,,0.00,428.000000,,2013-05-26 14:42:00,
2013-05-26 10:52:00,67.0,46.0,-100.00,ENE,70,2.0,4.0,46,0.00,,,0.00,428.000000,,2013-05-26 14:52:00,
2013-05-26 11:02:00,67.0,46.0,-100.00,ENE,70,2.0,4.0,46,0.00,,,0.00,428.000000,,2013-05-26 15:02:00,
2013-05-26 11:33:00,67.0,49.0,-100.00,SE,143,4.0,9.0,52,0.00,,,0.00,816.000000,,2013-05-26 15:33:00,
2013-05-26 11:43:00,67.0,49.0,-100.00,SE,143,4.0,9.0,52,0.00,,,0.00,816.000000,,2013-05-26 15:43:00,
2013-05-26 11:53:00,67.0,49.0,-100.00,SE,143,4.0,9.0,52,0.00,,,0.00,816.000000,,2013-05-26 15:53:00,
2013-05-26 12:03:00,67.0,49.0,-100.00,SE,143,4.0,9.0,52,0.00,,,0.00,816.000000,,2013-05-26 16:03:00,
2013-05-26 12:33:00,68.0,48.0,-100.00,SE,134,4.0,8.0,49,0.00,,,0.00,857.000000,,2013-05-26 16:33:00,
2013-05-26 12:42:00,68.0,48.0,-100.00,SE,134,4.0,8.0,49,0.00,,,0.00,857.000000,,2013-05-26 16:42:00,
2013-05-26 12:53:00,68.0,48.0,-100.00,SE,134,4.0,8.0,49,0.00,,,0.00,857.000000,,2013-05-26 16:53:00,
2013-05-26 13:02:00,68.0,48.0,-100.00,SE,134,4.0,8.0,49,0.00,,,0.00,857.000000,,2013-05-26 17:02:00,
2013-05-26 13:32:00,71.0,47.0,-100.00,East,82,4.0,9.0,43,0.00,,,0.00,1071.000000,,2013-05-26 17:32:00,
2013-05-26 13:42:00,71.0,47.0,-100.00,East,82,4.0,9.0,43,0.00,,,0.00,1071.000000,,2013-05-26 17:42:00,
2013-05-26 13:52:00,71.0,47.0,-100.00,East,82,4.0,9.0,43,0.00,,,0.00,1071.000000,,2013-05-26 17:52:00,
2013-05-26 14:01:00,71.0,47.0,-100.00,East,82,4.0,9.0,43,0.00,,,0.00,1071.000000,,2013-05-26 18:01:00,
2013-05-26 14:32:00,75.0,48.0,-100.00,NW,314,2.0,6.0,39,0.00,,,0.00,1024.000000,,2013-05-26 18:32:00,
2013-05-26 14:42:00,75.0,48.0,-100.00,NW,314,2.0,6.0,39,0.00,,,0.00,1024.000000,,2013-05-26 18:42:00,
2013-05-26 14:52:00,75.0,48.0,-100.00,NW,314,2.0,6.0,39,0.00,,,0.00,1024.000000,,2013-05-26 18:52:00,
2013-05-26 15:01:00,75.0,48.0,-100.00,NW,314,2.0,6.0,39,0.00,,,0.00,1024.000000,,2013-05-26 19:01:00,
2013-05-26 15:32:00,74.0,48.0,-100.00,NW,321,4.0,11.0,40,0.00,,,0.00,1037.000000,,2013-05-26 19:32:00,
2013-05-26 15:42:00,74.0,48.0,-100.00,NW,321,4.0,11.0,40,0.00,,,0.00,1037.000000,,2013-05-26 19:42:00,
2013-05-26 15:52:00,74.0,48.0,-100.00,NW,321,4.0,11.0,40,0.00,,,0.00,1037.000000,,2013-05-26 19:52:00,
2013-05-26 16:02:00,74.0,48.0,-100.00,NW,321,4.0,11.0,40,0.00,,,0.00,1037.000000,,2013-05-26 20:02:00,
2013-05-26 16:32:00,75.0,43.0,-100.00,West,271,5.0,10.0,32,0.00,,,0.00,963.000000,,2013-05-26 20:32:00,
2013-05-26 16:42:00,75.0,43.0,-100.00,West,271,5.0,10.0,32,0.00,,,0.00,963.000000,,2013-05-26 20:42:00,
2013-05-26 16:52:00,75.0,43.0,-100.00,West,271,5.0,10.0,32,0.00,,,0.00,963.000000,,2013-05-26 20:52:00,
2013-05-26 17:02:00,75.0,43.0,-100.00,West,271,5.0,10.0,32,0.00,,,0.00,963.000000,,2013-05-26 21:02:00,
2013-05-26 17:33:00,76.0,43.0,-100.00,NW,316,4.0,11.0,31,0.00,,,0.00,794.000000,,2013-05-26 21:33:00,
2013-05-26 17:43:00,76.0,43.0,-100.00,NW,316,4.0,11.0,31,0.00,,,0.00,794.000000,,2013-05-26 21:43:00,
2013-05-26 17:53:00,76.0,43.0,-100.00,NW,316,4.0,11.0,31,0.00,,,0.00,794.000000,,2013-05-26 21:53:00,
2013-05-26 18:03:00,76.0,43.0,-100.00,NW,316,4.0,11.0,31,0.00,,,0.00,794.000000,,2013-05-26 22:03:00,
2013-05-26 18:33:00,76.0,46.0,-100.00,North,9,3.0,8.0,34,0.00,,,0.00,589.000000,,2013-05-26 22:33:00,
2013-05-26 18:42:00,76.0,46.0,-100.00,North,9,3.0,8.0,34,0.00,,,0.00,589.000000,,2013-05-26 22:42:00,
2013-05-26 18:53:00,76.0,46.0,-100.00,North,9,3.0,8.0,34,0.00,,,0.00,589.000000,,2013-05-26 22:53:00,
2013-05-26 19:02:00,76.0,46.0,-100.00,North,9,3.0,8.0,34,0.00,,,0.00,589.000000,,2013-05-26 23:02:00,
2013-05-26 19:32:00,75.0,49.0,-100.00,NNE,19,3.0,6.0,40,0.00,,,0.00,361.000000,,2013-05-26 23:32:00,
2013-05-26 19:43:00,75.0,49.0,-100.00,NNE,19,3.0,6.0,40,0.00,,,0.00,361.000000,,2013-05-26 23:43:00,
2013-05-26 19:52:00,75.0,49.0,-100.00,NNE,19,3.0,6.0,40,0.00,,,0.00,361.000000,,2013-05-26 23:52:00,
2013-05-26 20:02:00,75.0,49.0,-100.00,NNE,19,3.0,6.0,40,0.00,,,0.00,361.000000,,2013-05-27 00:02:00,
2013-05-26 20:32:00,67.0,54.0,-100.00,NNW,328,0.0,4.0,64,0.00,,,0.00,130.000000,,2013-05-27 00:32:00,
2013-05-26 20:42:00,67.0,54.0,-100.00,NNW,328,0.0,4.0,64,0.00,,,0.00,130.000000,,2013-05-27 00:42:00,
2013-05-26 20:52:00,67.0,54.0,-100.00,NNW,328,0.0,4.0,64,0.00,,,0.00,130.000000,,2013-05-27 00:52:00,
2013-05-26 21:01:00,67.0,54.0,-100.00,NNW,328,0.0,4.0,64,0.00,,,0.00,130.000000,,2013-05-27 01:01:00,
2013-05-26 21:32:00,60.0,54.0,-100.00,NW,314,0.0,2.0,80,0.00,,,0.00,14.000000,,2013-05-27 01:32:00,
2013-05-26 21:42:00,60.0,54.0,-100.00,NW,314,0.0,2.0,80,0.00,,,0.00,14.000000,,2013-05-27 01:42:00,
2013-05-26 21:52:00,60.0,54.0,-100.00,NW,314,0.0,2.0,80,0.00,,,0.00,14.000000,,2013-05-27 01:52:00,
2013-05-26 22:02:00,60.0,54.0,-100.00,NW,314,0.0,2.0,80,0.00,,,0.00,14.000000,,2013-05-27 02:02:00,
2013-05-26 22:32:00,57.0,50.0,-100.00,NW,318,0.0,2.0,78,0.00,,,0.00,0.000000,,2013-05-27 02:32:00,
2013-05-26 22:43:00,57.0,50.0,-100.00,NW,318,0.0,2.0,78,0.00,,,0.00,0.000000,,2013-05-27 02:43:00,
2013-05-26 22:52:00,57.0,50.0,-100.00,NW,318,0.0,2.0,78,0.00,,,0.00,0.000000,,2013-05-27 02:52:00,
2013-05-26 23:02:00,57.0,50.0,-100.00,NW,318,0.0,2.0,78,0.00,,,0.00,0.000000,,2013-05-27 03:02:00,
2013-05-26 23:33:00,55.0,47.0,-100.00,NW,315,0.0,2.0,73,0.00,,,0.00,0.000000,,2013-05-27 03:33:00,
2013-05-26 23:43:00,55.0,47.0,-100.00,NW,315,0.0,2.0,73,0.00,,,0.00,0.000000,,2013-05-27 03:43:00,
2013-05-26 23:53:00,55.0,47.0,-100.00,NW,315,0.0,2.0,73,0.00,,,0.00,0.000000,,2013-05-27 03:53:00,